This is the latest recevied weather packets stored in our database for station/object IU3NMQ-10. If no packets are shown the sender has not sent any weather packets the latest 10 day(s).
| Time | Temp. | Humidity | Pressure | Rain* | Wind** | Luminosity | Snow |
|---|---|---|---|---|---|---|---|
| 1777659057 | 20.56° C | 32% | 1020.9 hPa | - | - | - | - |
| 1777658156 | 20.56° C | 30% | 1020.8 hPa | - | - | - | - |
| 1777657256 | 21.11° C | 30% | 1020.6 hPa | - | - | - | - |
| 1777656356 | 21.11° C | 29% | 1020.5 hPa | - | - | - | - |
| 1777655456 | 21.67° C | 30% | 1020.5 hPa | - | - | - | - |
| 1777654556 | 22.22° C | 29% | 1020.4 hPa | - | - | - | - |
| 1777653708 | 22.22° C | 29% | 1020.5 hPa | - | - | - | - |
| 1777653656 | 22.22° C | 29% | 1020.5 hPa | - | - | - | - |
| 1777652756 | 22.22° C | 28% | 1020.6 hPa | - | - | - | - |
| 1777651856 | 22.78° C | 28% | 1020.6 hPa | - | - | - | - |
| 1777650956 | 23.33° C | 28% | 1020.7 hPa | - | - | - | - |
| 1777650055 | 23.33° C | 27% | 1020.8 hPa | - | - | - | - |
| 1777649155 | 23.89° C | 27% | 1020.9 hPa | - | - | - | - |
| 1777648255 | 23.89° C | 26% | 1021 hPa | - | - | - | - |
| 1777647355 | 24.44° C | 26% | 1021.1 hPa | - | - | - | - |
| 1777646455 | 26.11° C | 25% | 1021 hPa | - | - | - | - |
| 1777645555 | 28.89° C | 23% | 1021.1 hPa | - | - | - | - |
| 1777644654 | 27.22° C | 24% | 1021.2 hPa | - | - | - | - |
| 1777643754 | 29.44° C | 22% | 1021.4 hPa | - | - | - | - |
| 1777642854 | 26.67° C | 26% | 1021.5 hPa | - | - | - | - |
| 1777641953 | 26.11° C | 25% | 1021.7 hPa | - | - | - | - |
| 1777641053 | 26.67° C | 25% | 1021.9 hPa | - | - | - | - |
| 1777640153 | 26.67° C | 23% | 1022.1 hPa | - | - | - | - |
| 1777639253 | 26.67° C | 23% | 1022.2 hPa | - | - | - | - |
| 1777638353 | 26.67° C | 24% | 1022.5 hPa | - | - | - | - |
* Rain since midnight (hover to see other rain measurements)
** Current wind speed in m/s (hover to see current wind gust speed)